Lake Medina Weather Center

Moon Phase Calendar



Lake Medina Water Level
Online Cameras

 


      

Current Conditions in Lakehills
8/16/2022 7:46:56 PM

90°F
Feels Like 96
Clouds
Humidity
52%
Pressure
29.88"
Wind
7.7 mph (SE)
Dew Point
70°F
UV Index
0/10 (Low)
Visibility
6 mi

Hourly Forecast

Date & Time Tue, Aug 16
7:00 PM
Tue, Aug 16
8:00 PM
Tue, Aug 16
9:00 PM
Tue, Aug 16
10:00 PM
Tue, Aug 16
11:00 PM
Wed, Aug 17
12:00 AM
Wed, Aug 17
1:00 AM
Wed, Aug 17
2:00 AM
Wed, Aug 17
3:00 AM
Wed, Aug 17
4:00 AM
Wed, Aug 17
5:00 AM
Wed, Aug 17
6:00 AM
Wed, Aug 17
7:00 AM
Wed, Aug 17
8:00 AM
Wed, Aug 17
9:00 AM
Wed, Aug 17
10:00 AM
Wed, Aug 17
11:00 AM
Wed, Aug 17
12:00 PM
Wed, Aug 17
1:00 PM
Wed, Aug 17
2:00 PM
Wed, Aug 17
3:00 PM
Wed, Aug 17
4:00 PM
Wed, Aug 17
5:00 PM
Wed, Aug 17
6:00 PM
Wed, Aug 17
7:00 PM
Wed, Aug 17
8:00 PM
Wed, Aug 17
9:00 PM
Wed, Aug 17
10:00 PM
Wed, Aug 17
11:00 PM
Thu, Aug 18
12:00 AM
Thu, Aug 18
1:00 AM
Thu, Aug 18
2:00 AM
Thu, Aug 18
3:00 AM
Thu, Aug 18
4:00 AM
Thu, Aug 18
5:00 AM
Thu, Aug 18
6:00 AM
Thu, Aug 18
7:00 AM
Thu, Aug 18
8:00 AM
Thu, Aug 18
9:00 AM
Thu, Aug 18
10:00 AM
Thu, Aug 18
11:00 AM
Thu, Aug 18
12:00 PM
Thu, Aug 18
1:00 PM
Thu, Aug 18
2:00 PM
Thu, Aug 18
3:00 PM
Thu, Aug 18
4:00 PM
Thu, Aug 18
5:00 PM
Thu, Aug 18
6:00 PM
Condition
Clouds

Clouds

Clouds

Clouds

Clouds

Clouds

Clouds

Clouds

Clouds

Clouds

Clouds

Clouds

Clouds

Clouds

Clouds

Clouds

Clouds

Clouds

Clouds

Clouds

Clouds

Clouds

Clouds

Clouds

Clouds

Clouds

Clouds

Clouds

Clouds

Clouds

Clouds

Clouds

Clouds

Clouds

Clouds

Clouds

Clouds

Clouds

Clouds

Clouds

Clouds

Clouds

Clouds

Clouds

Clouds

Clouds

Clouds

Clouds
Temperature 90°F90°F89°F87°F84°F81°F77°F76°F75°F74°F73°F73°F72°F75°F78°F82°F85°F88°F91°F93°F95°F96°F96°F96°F94°F90°F86°F84°F83°F81°F79°F78°F77°F76°F75°F75°F74°F76°F80°F84°F88°F91°F94°F96°F98°F98°F97°F97°F
Feels Like 94°F96°F94°F91°F88°F85°F78°F77°F76°F75°F74°F74°F74°F76°F80°F85°F88°F91°F93°F95°F96°F97°F96°F96°F94°F90°F87°F85°F84°F83°F79°F79°F78°F77°F77°F76°F75°F78°F84°F88°F91°F94°F95°F97°F98°F98°F97°F96°F
Cloudiness 100%100%99%99%93%90%88%42%63%76%82%85%84%97%84%79%77%81%80%35%49%53%54%56%62%97%98%99%94%81%75%29%26%50%51%47%49%54%37%29%26%24%23%13%12%15%20%16%
Visibility 6 mi6 mi6 mi6 mi6 mi6 mi6 mi6 mi6 mi6 mi6 mi6 mi6 mi6 mi6 mi6 mi6 mi6 mi6 mi6 mi6 mi6 mi6 mi6 mi6 mi6 mi6 mi6 mi6 mi6 mi6 mi6 mi6 mi6 mi6 mi6 mi6 mi6 mi6 mi6 mi6 mi6 mi6 mi6 mi6 mi6 mi6 mi6 mi
Precipitation 0%0%0%0%0%0%0%0%0%0%0%0%0%0%0%0%0%0%0%0%0%0%0%0%0%0%0%0%0%0%0%0%0%0%0%0%0%0%0%0%0%0%0%0%0%1%0%7%
Humidity 51%52%54%57%61%66%74%78%82%85%87%89%91%85%76%64%55%48%42%37%34%32%31%31%33%40%45%48%51%61%69%74%79%82%85%87%88%82%71%61%52%44%37%32%29%27%27%28%
Dew Point 69°F70°F70°F70°F69°F69°F68°F69°F69°F69°F69°F69°F70°F70°F70°F69°F67°F66°F65°F64°F63°F62°F61°F61°F61°F62°F63°F63°F64°F67°F69°F69°F70°F70°F71°F71°F71°F71°F70°F69°F68°F66°F64°F62°F60°F59°F59°F58°F
Pressure 29.88"29.88"29.88"29.88"29.91"29.94"29.94"29.94"29.94"29.94"29.97"29.97"30"30"30"30"30"30"29.97"29.94"29.91"29.88"29.88"29.85"29.85"29.85"29.85"29.88"29.88"29.91"29.91"29.91"29.91"29.91"29.91"29.91"29.94"29.94"29.94"29.94"29.94"29.91"29.88"29.85"29.85"29.83"29.77"29.77"
Wind Speed 9.5 mph7.7 mph5.8 mph5.6 mph7.2 mph9.2 mph7.1 mph5.5 mph4.1 mph3.3 mph2.4 mph2 mph1.4 mph2.1 mph5.3 mph5.7 mph5.5 mph6.6 mph7.5 mph8.1 mph8.5 mph9.1 mph9 mph8.8 mph9.2 mph7.6 mph6.6 mph5.1 mph6.2 mph9.6 mph8.3 mph6.5 mph5.2 mph5.1 mph4.1 mph2.6 mph1 mph1.5 mph2.6 mph4.1 mph4.3 mph4.5 mph6.4 mph8.2 mph10 mph12.2 mph13 mph12.6 mph
Wind
Direction
147°
SSE
137°
SE
129°
SE
124°
SE
151°
SSE
164°
SSE
165°
SSE
176°
S
176°
S
149°
SSE
129°
SE
124°
SE
129°
SE
157°
SSE
183°
S
191°
S
192°
SSW
185°
S
174°
S
165°
SSE
159°
SSE
153°
SSE
148°
SSE
144°
SE
144°
SE
152°
SSE
172°
S
193°
SSW
172°
S
172°
S
177°
S
175°
S
182°
S
189°
S
195°
SSW
220°
SW
238°
WSW
207°
SSW
199°
SSW
197°
SSW
187°
S
166°
SSE
153°
SSE
152°
SSE
152°
SSE
151°
SSE
156°
SSE
151°
SSE

Daily Forecast

Date High Low Precip. Humidity
Today
Aug 16

Clouds
93 °F
73 °F
19%
43%
Wednesday
Aug 17

Clouds
96 °F
72 °F
0%
42%
Thursday
Aug 18

Rain
98 °F
74 °F
41%
37%
Friday
Aug 19

Rain
94 °F
73 °F
99%
39%
Saturday
Aug 20

Clouds
91 °F
74 °F
6%
41%
Sunday
Aug 21

Rain
92 °F
73 °F
20%
44%
Monday
Aug 22

Rain
93 °F
74 °F
69%
47%
Tuesday
Aug 23

Rain
94 °F
75 °F
97%
47%
Wednesday
Aug 24

Rain
90 °F
75 °F
78%
52%
Thursday
Aug 25

Rain
77 °F
71 °F
100%
86%
Friday
Aug 26

Rain
78 °F
72 °F
100%
77%
Saturday
Aug 27

Rain
85 °F
73 °F
91%
62%
Sunday
Aug 28

Clouds
93 °F
72 °F
6%
50%
Monday
Aug 29

Rain
86 °F
73 °F
99%
56%
Tuesday
Aug 30

Rain
76 °F
71 °F
100%
93%
Wednesday
Aug 31

Rain
73 °F
70 °F
100%
93%

Temperature 8-14 Day Outlook



Precipitation 8-14 Day Outlook




Quick Links
Lake Medina News
Lake Medina Photos
Lake Medina Videos




About Us
Contact Us
Site Map
Search Site
Advertise With Us
   
Medina.USLakes.info
THE LAKE MEDINA WEBSITE

Copyright 2022, Lakes Online
Privacy    |    Legal